• In Denmark
  • List of Countries
  • For 7 days
  • Water Temperature
  • Satellite Maps
  • Weather Map
  • Weather Widgets
  • user-avatar
    Login

    Hourly Weather Kerns

    Today, 17 October, Tuesday

    Time Temperature Precipitation Wind Pressure Humidity
    00:00 +25°C° 0.3 mm 4 mps 757 mmHg 92%
    01:00 +25°C° 0.3 mm 4 mps 757 mmHg 91%
    02:00 +24°C° 0.7 mm 3 mps 756 mmHg 92%
    03:00 +24°C° 0.7 mm 3 mps 756 mmHg 93%
    04:00 +23°C° 0 mm 4 mps 756 mmHg 93%
    05:00 +23°C° 2.3 mm 4 mps 756 mmHg 92%
    06:00 +23°C° 2.3 mm 4 mps 757 mmHg 92%
    07:00 +25°C° 2.3 mm 4 mps 757 mmHg 91%
    08:00 +25°C° 1.8 mm 4 mps 758 mmHg 88%
    09:00 +26°C° 1.8 mm 4 mps 758 mmHg 86%
    10:00 +26°C° 1.8 mm 3 mps 758 mmHg 83%
    11:00 +26°C° 1.7 mm 3 mps 758 mmHg 82%
    12:00 +27°C° 1.7 mm 3 mps 757 mmHg 80%
    13:00 +27°C° 1.7 mm 2 mps 757 mmHg 79%
    14:00 +26°C° 2.3 mm 2 mps 757 mmHg 83%
    15:00 +26°C° 2.3 mm 3 mps 756 mmHg 87%
    16:00 +25°C° 2.3 mm 3 mps 756 mmHg 91%
    17:00 +25°C° 0.9 mm 3 mps 756 mmHg 92%
    18:00 +24°C° 0.9 mm 3 mps 757 mmHg 93%
    19:00 +24°C° 0.9 mm 3 mps 757 mmHg 95%
    20:00 +24°C° 0.8 mm 3 mps 758 mmHg 95%
    21:00 +23°C° 0.8 mm 4 mps 758 mmHg 95%
    22:00 +22°C° 0.8 mm 4 mps 758 mmHg 95%
    23:00 +22°C° 0.4 mm 3 mps 758 mmHg 95%

    Tomorrow, 18 October, Wednesday

    Time Temperature Precipitation Wind Pressure Humidity
    00:00 +22°C° 0.4 mm 3 mps 758 mmHg 94%
    01:00 +22°C° 0.4 mm 3 mps 757 mmHg 94%
    02:00 +22°C° 2.3 mm 3 mps 757 mmHg 95%
    03:00 +22°C° 2.3 mm 3 mps 757 mmHg 95%
    04:00 +21°C° 2.3 mm 3 mps 757 mmHg 95%
    05:00 +22°C° 1.2 mm 3 mps 757 mmHg 94%
    06:00 +23°C° 1.2 mm 2 mps 757 mmHg 92%
    07:00 +23°C° 1.2 mm 2 mps 758 mmHg 91%
    08:00 +25°C° 0.6 mm 2 mps 758 mmHg 84%
    09:00 +26°C° 0.6 mm 2 mps 758 mmHg 78%
    10:00 +28°C° 0.6 mm 2 mps 758 mmHg 72%
    11:00 +29°C° 0.2 mm 3 mps 758 mmHg 69%
    12:00 +30°C° 0.2 mm 3 mps 757 mmHg 65%
    13:00 +32°C° 0.2 mm 4 mps 757 mmHg 62%
    14:00 +30°C° 0.8 mm 4 mps 757 mmHg 66%
    15:00 +30°C° 0.8 mm 4 mps 756 mmHg 71%
    16:00 +29°C° 0.8 mm 4 mps 756 mmHg 75%
    17:00 +28°C° 0.4 mm 4 mps 757 mmHg 81%
    18:00 +26°C° 0.4 mm 4 mps 757 mmHg 87%
    19:00 +25°C° 0.4 mm 4 mps 758 mmHg 93%
    20:00 +25°C° 0.3 mm 4 mps 758 mmHg 93%
    21:00 +25°C° 0.3 mm 4 mps 759 mmHg 93%
    22:00 +25°C° 0.3 mm 4 mps 759 mmHg 94%
    23:00 +25°C° 1.5 mm 4 mps 759 mmHg 94%

    Day after tomorrow, 19 October, Thursday

    Time Temperature Precipitation Wind Pressure Humidity
    00:00 +25°C° 1.5 mm 4 mps 759 mmHg 94%
    01:00 +25°C° 1.5 mm 4 mps 758 mmHg 95%
    02:00 +25°C° 2.8 mm 4 mps 758 mmHg 95%
    03:00 +25°C° 2.8 mm 4 mps 758 mmHg 94%
    04:00 +25°C° 2.8 mm 4 mps 758 mmHg 94%
    05:00 +25°C° 2.1 mm 4 mps 758 mmHg 94%
    06:00 +25°C° 2.1 mm 4 mps 759 mmHg 93%
    07:00 +25°C° 2.1 mm 4 mps 759 mmHg 92%
    08:00 +25°C° 1.2 mm 4 mps 759 mmHg 92%
    09:00 +26°C° 1.2 mm 4 mps 760 mmHg 92%
    10:00 +26°C° 1.2 mm 4 mps 760 mmHg 92%
    11:00 +26°C° 3 mm 5 mps 760 mmHg 92%
    12:00 +26°C° 3 mm 5 mps 760 mmHg 92%
    13:00 +26°C° 3 mm 6 mps 759 mmHg 93%
    14:00 +26°C° 0.3 mm 5 mps 759 mmHg 91%
    15:00 +27°C° 0.3 mm 5 mps 758 mmHg 90%
    16:00 +27°C° 0.3 mm 5 mps 758 mmHg 88%
    17:00 +26°C° 0.1 mm 5 mps 758 mmHg 90%
    18:00 +26°C° 0.1 mm 5 mps 759 mmHg 92%
    19:00 +25°C° 0.1 mm 4 mps 759 mmHg 94%
    20:00 +25°C° 0.1 mm 4 mps 760 mmHg 94%
    21:00 +25°C° 0.1 mm 4 mps 760 mmHg 95%
    22:00 +25°C° 0.1 mm 3 mps 761 mmHg 95%
    23:00 +25°C° 0 mm 4 mps 760 mmHg 95%

    20 October, Friday

    Time Temperature Precipitation Wind Pressure Humidity
    00:00 +23°C° 0 mm 4 mps 760 mmHg 96%
    01:00 +23°C° 0 mm 4 mps 759 mmHg 96%
    02:00 +23°C° 0.3 mm 4 mps 759 mmHg 96%
    03:00 +23°C° 0.3 mm 4 mps 759 mmHg 96%
    04:00 +23°C° 0.3 mm 4 mps 759 mmHg 96%
    05:00 +23°C° 0.3 mm 4 mps 759 mmHg 94%
    06:00 +25°C° 0.3 mm 4 mps 760 mmHg 92%
    07:00 +26°C° 0.3 mm 4 mps 760 mmHg 90%
    08:00 +27°C° 0.3 mm 4 mps 760 mmHg 84%
    09:00 +29°C° 0.3 mm 4 mps 761 mmHg 79%
    10:00 +30°C° 0.3 mm 4 mps 761 mmHg 73%
    11:00 +32°C° 1 mm 4 mps 760 mmHg 73%
    12:00 +32°C° 1 mm 4 mps 760 mmHg 74%
    13:00 +32°C° 1 mm 5 mps 759 mmHg 74%
    14:00 +30°C° 0.3 mm 5 mps 759 mmHg 76%
    15:00 +30°C° 0.3 mm 5 mps 758 mmHg 78%
    16:00 +29°C° 0.3 mm 5 mps 758 mmHg 81%
    17:00 +28°C° 0.9 mm 5 mps 758 mmHg 85%
    18:00 +27°C° 0.9 mm 4 mps 759 mmHg 89%
    19:00 +26°C° 0.9 mm 4 mps 760 mmHg 93%
    20:00 +26°C° 1.1 mm 4 mps 760 mmHg 94%
    21:00 +26°C° 1.1 mm 4 mps 760 mmHg 94%
    22:00 +26°C° 1.1 mm 4 mps 760 mmHg 95%
    23:00 +26°C° 1 mm 4 mps 760 mmHg 95%

    21 October, Saturday

    Time Temperature Precipitation Wind Pressure Humidity
    00:00 +26°C° 1 mm 4 mps 759 mmHg 95%
    01:00 +26°C° 1 mm 4 mps 759 mmHg 95%
    02:00 +26°C° 1.4 mm 4 mps 758 mmHg 95%
    03:00 +26°C° 1.4 mm 3 mps 758 mmHg 95%
    04:00 +26°C° 1.4 mm 3 mps 758 mmHg 95%
    05:00 +26°C° 1.1 mm 3 mps 758 mmHg 94%
    06:00 +26°C° 1.1 mm 4 mps 759 mmHg 93%
    07:00 +26°C° 1.1 mm 4 mps 759 mmHg 93%
    08:00 +27°C° 0.5 mm 4 mps 759 mmHg 89%
    09:00 +28°C° 0.5 mm 3 mps 759 mmHg 86%
    10:00 +29°C° 0.5 mm 3 mps 759 mmHg 82%
    11:00 +29°C° 0.4 mm 3 mps 758 mmHg 81%
    12:00 +29°C° 0.4 mm 3 mps 758 mmHg 79%
    13:00 +30°C° 0.4 mm 3 mps 757 mmHg 78%
    14:00 +29°C° 0.4 mm 3 mps 757 mmHg 78%
    15:00 +29°C° 0.4 mm 3 mps 756 mmHg 79%
    16:00 +29°C° 0.4 mm 3 mps 756 mmHg 79%
    17:00 +28°C° 0.3 mm 3 mps 757 mmHg 83%
    18:00 +27°C° 0.3 mm 3 mps 757 mmHg 88%
    19:00 +26°C° 0.3 mm 3 mps 758 mmHg 93%
    20:00 +26°C° 0.6 mm 3 mps 758 mmHg 93%
    21:00 +26°C° 0.6 mm 3 mps 758 mmHg 94%
    22:00 +26°C° 0.6 mm 3 mps 758 mmHg 95%
    23:00 +26°C° 1 mm 2 mps 758 mmHg 95%

    22 October, Sunday

    Time Temperature Precipitation Wind Pressure Humidity
    00:00 +26°C° 1 mm 2 mps 757 mmHg 96%
    01:00 +26°C° 1 mm 2 mps 757 mmHg 96%
    02:00 +25°C° 0.8 mm 2 mps 756 mmHg 96%
    03:00 +25°C° 0.8 mm 2 mps 756 mmHg 96%
    04:00 +25°C° 0.8 mm 2 mps 756 mmHg 97%
    05:00 +25°C° 2.3 mm 2 mps 757 mmHg 97%
    06:00 +25°C° 2.3 mm 2 mps 757 mmHg 97%
    07:00 +25°C° 2.3 mm 2 mps 758 mmHg 97%
    08:00 +25°C° 2.7 mm 2 mps 758 mmHg 97%
    09:00 +25°C° 2.7 mm 2 mps 758 mmHg 97%
    10:00 +25°C° 2.7 mm 2 mps 758 mmHg 96%
    11:00 +25°C° 0.7 mm 2 mps 757 mmHg 95%
    12:00 +25°C° 0.7 mm 3 mps 757 mmHg 95%
    13:00 +25°C° 0.7 mm 3 mps 756 mmHg 94%
    14:00 +27°C° 0.1 mm 2 mps 756 mmHg 88%
    15:00 +28°C° 0.1 mm 2 mps 756 mmHg 82%
    16:00 +29°C° 0.1 mm 2 mps 755 mmHg 76%
    17:00 +28°C° 0.1 mm 2 mps 756 mmHg 83%
    18:00 +27°C° 0.1 mm 2 mps 756 mmHg 89%
    19:00 +25°C° 0.1 mm 1 mps 757 mmHg 95%
    20:00 +25°C° 0.1 mm 1 mps 757 mmHg 96%
    21:00 +25°C° 0.1 mm 1 mps 757 mmHg 96%
    22:00 +25°C° 0.1 mm 1 mps 758 mmHg 96%
    23:00 +25°C° 0 mm 1 mps 757 mmHg 97%
    Show more